Location: Münnerstadt
(50.2464°N, 10.2019°E)
Time: 05:49:24
(UTC+00:00)

Daily predictions for brighter satellites

Satellite Brightness Start Highest point End
(mag) Time Altitude Azimuth Time Altitude Azimuth Time Altitude Azimuth
Cosmos 1726 Rocket 4.3 00:07:11 46° ENE 00:07:11 46° ENE 00:10:37 10° NNE
Cosmos 1331 Rocket 4.5 00:06:53 49° WNW 00:07:19 50° WNW 00:12:27 10° NNE
ATLAS 2AS CENTAUR R/B 3.0 00:09:45 37° WSW 00:12:28 62° NW 00:19:14 10° NE
Cosmos 1536 4.5 00:09:24 10° NNE 00:12:16 25° ENE 00:12:16 25° ENE
IDEFIX/ARIANE 42P 3.9 00:11:19 10° NE 00:15:45 28° E 00:16:41 26° ESE
Meteor 1-5 Rocket 4.1 00:15:34 10° NNW 00:20:55 68° W 00:20:58 68° WSW
Cosmos 1953 Rocket 3.8 00:18:11 10° N 00:22:18 67° NE 00:22:18 67° NE
Cosmos 1980 Rocket 2.7 00:19:29 10° NW 00:24:20 45° W 00:24:20 45° W
USA 234 3.9 00:20:15 10° E 00:26:36 55° NNE 00:32:57 10° WNW
Cosmos 44 Rocket 3.9 00:29:47 47° ESE 00:29:47 47° ESE 00:34:34 10° NE
Cosmos 1825 Rocket 4.3 00:29:07 10° NNW 00:32:19 43° NW 00:32:19 43° NW
COSMOS 2406 3.9 00:32:29 39° SE 00:33:21 41° ESE 00:38:43 10° NE
Meteor 2-10 4.2 00:30:28 10° NNW 00:35:51 59° W 00:36:02 59° WSW
Cosmos 2369 3.6 00:30:38 10° NNW 00:36:19 69° WSW 00:36:38 68° SW
Cosmos 1634 Rocket 4.0 00:35:56 52° SSE 00:37:25 71° E 00:43:34 10° NNE
Cosmos 724 4.3 00:44:49 58° S 00:45:51 70° SE 00:51:47 10° NE
Cosmos 2084 3.7 00:46:24 59° NNW 00:46:24 59° NNW 00:50:17 10° NE
Spot 1 4.0 00:43:15 10° NNE 00:47:07 78° NNE 00:47:07 78° NNE
Cosmos 1607 4.0 00:47:22 51° SSE 00:48:33 61° ESE 00:54:41 10° NE
Cosmos-2242 2.9 00:52:12 78° NE 00:52:12 78° NE 00:56:12 10° NNE
Cosmos 2360 Rocket 3.3 00:46:36 10° NNW 00:52:02 44° NE 00:57:26 10° ESE
Cosmos 2333 Rocket 2.5 00:47:32 10° NNW 00:53:12 67° ENE 00:57:05 21° SE
FENGYUN 3A 4.4 00:49:47 10° NNE 00:54:58 44° E 00:56:43 33° SE
USA 281 3.2 00:51:27 27° SSE 00:55:19 86° ENE 01:01:57 10° NNW
Cosmos 2082 Rocket 2.3 00:59:24 53° WSW 01:00:40 71° WNW 01:06:25 10° NNE
Cosmos 1842 4.2 01:02:44 33° ENE 01:02:44 33° ENE 01:05:07 10° NNE
Meteor 2-2 Rocket 4.1 01:02:52 54° S 01:04:13 87° E 01:09:53 10° NNE
Cosmos 2279 Rocket 4.0 01:03:59 44° S 01:06:07 80° E 01:12:23 10° NNE
Cosmos 2278 3.8 01:01:15 10° NNW 01:07:00 76° ENE 01:11:11 19° SE
Cosmos 2322 Rocket 2.7 01:01:52 10° NNW 01:07:27 58° NE 01:13:00 10° SE
Cosmos 1486 Rocket 3.9 01:02:31 10° NNW 01:07:46 87° ENE 01:09:36 42° SSE
NPP 4.0 01:02:51 10° NNE 01:08:11 57° E 01:09:56 39° SSE
Cosmos 2221 3.5 01:07:40 34° ESE 01:08:31 38° E 01:12:21 10° NNE
Resurs 1-4 Rocket 3.9 01:04:32 10° NE 01:08:47 24° E 01:12:17 13° SE
NOSS 3-3 (A) 3.8 01:14:12 48° S 01:15:28 61° SE 01:21:34 10° NE
ACS3 Solar Sail 2.0 01:10:48 10° N 01:16:42 58° WNW 01:18:33 42° SW
Cosmos 1777 Rocket 3.9 01:13:06 10° NNW 01:18:25 89° WSW 01:20:41 35° SSE
Cosmos 2219 Rocket 3.2 01:15:56 10° NNW 01:21:22 45° NE 01:26:47 10° SE
SL-16 R/B 2.1 01:16:52 10° NNW 01:22:32 71° WSW 01:24:53 36° S
CZ-4C R/B 2.2 01:22:06 44° W 01:23:18 59° NW 01:28:56 10° NE
H-2A R/B 4.1 01:19:28 10° NE 01:23:25 22° E 01:27:25 10° SE
GP-B 3.9 01:19:28 10° NNW 01:23:25 36° WNW 01:23:25 36° WNW
Meteor 1-11 Rocket 4.4 01:17:53 10° N 01:23:42 55° ENE 01:29:12 11° SSE
Cosmos 2180 Rocket 4.5 01:22:10 36° S 01:24:53 78° E 01:31:05 10° NNE
Cosmos 1271 Rocket 3.1 01:27:38 44° ESE 01:27:56 45° E 01:31:17 10° NNE
Meteor 1-14 Rocket 4.2 01:23:53 10° NNW 01:29:41 90° WSW 01:32:37 30° S
ATLAS 3B R/B 4.0 01:24:08 10° WNW 01:29:24 23° WSW 01:29:24 23° WSW
SL-4 R/B 2.6 01:31:34 40° SE 01:31:34 40° SE 01:34:09 10° ESE
USA 267 3.8 01:25:04 10° ENE 01:31:19 45° SE 01:34:01 30° S
NOSS 3-3 (C) 3.8 01:30:27 42° SSW 01:32:12 66° SE 01:38:26 10° NE
Cosmos 2058 Rocket 3.5 01:32:04 44° W 01:32:29 46° WNW 01:36:45 10° N
Cosmos 2266 Rocket 3.9 01:29:05 10° N 01:35:16 87° E 01:39:09 24° S
Cosmos 1470 2.5 01:33:18 10° NNW 01:36:16 64° NW 01:36:16 64° NW
Gbstr 26 Del rocket 2.5 01:37:23 66° SSE 01:37:23 66° SSE 01:40:46 10° ESE
KORONAS-FOTON 4.0 01:38:28 46° NW 01:38:28 46° NW 01:41:20 10° N
USA 290 4.0 01:37:48 22° ESE 01:38:17 23° ESE 01:40:53 10° NE
Cosmos 909 Rocket 4.5 01:37:58 29° WSW 01:41:06 54° NW 01:47:28 10° NE
Cosmos 1536 4.1 01:44:37 10° NNW 01:46:48 23° WNW 01:46:48 23° WNW
Cosmos 2333 4.2 01:42:19 10° NNW 01:48:01 84° ENE 01:53:45 10° SSE
DMSP B5D2-2 4.1 01:45:23 16° SSE 01:49:33 82° ENE 01:54:46 10° NNW
Cosmos 1655 Rocket 4.5 01:44:09 10° N 01:50:20 61° ENE 01:56:28 10° SSE
Cosmos 1812 Rocket 3.5 01:49:34 39° S 01:51:07 81° E 01:55:28 10° NNE
Meteor 2-6 Rocket 4.4 01:49:06 35° SW 01:51:29 64° WNW 01:57:22 10° N
NOSS 3-4 (A) 3.9 01:46:13 10° NW 01:52:48 77° NE 02:00:37 10° SE
NOSS 3-4 (C) 3.9 01:46:45 10° NW 01:53:22 77° NE 02:01:11 10° SE
IDEFIX/ARIANE 42P 2.9 01:50:26 10° N 01:55:25 49° WNW 01:57:22 33° WSW
ISS -1.1 01:56:14 11° SE 01:56:31 11° SE 01:57:16 10° ESE
COSMOS 2441 4.2 01:52:44 10° NNE 01:57:34 88° WNW 01:59:44 33° SSW
Envisat 3.3 01:53:05 10° NNE 01:58:09 63° ESE 02:01:23 22° S
Meteor 2-20 4.5 01:54:40 24° S 01:58:37 84° E 02:04:48 10° NNE
Aureole 1 Rocket 3.5 01:55:21 10° NNW 01:59:24 66° ENE 02:04:28 10° SSE
Cosmos 1707 4.4 02:03:05 14° NW 02:03:05 14° NW 02:04:11 10° NNW
Cosmos 2084 Rocket 3.2 01:58:56 10° NW 02:03:08 75° SW 02:07:22 10° SE
ATLAS 2AS CENTAUR R/B 4.2 01:58:44 10° WNW 02:04:39 29° NNW 02:10:30 10° NE
SWARM C 4.4 02:02:07 10° N 02:05:23 82° E 02:06:24 41° S
SWARM A 4.4 02:02:13 10° N 02:05:28 69° E 02:06:47 32° SSE
Iridium 4 Rocket 3.3 02:03:00 26° S 02:05:42 90° E 02:10:50 10° N
MOZ.5/SAFIR/RUBIN 5/SL-8 3.9 02:05:32 31° SSW 02:07:31 53° W 02:12:05 10° NNW
Meteor 1-27 Rocket 4.2 02:03:31 15° S 02:08:21 64° E 02:14:13 10° NNE
H-2A R/B 2.0 02:06:25 22° SSE 02:08:41 87° ENE 02:12:17 10° NNW
USA 234 3.2 02:02:52 10° ESE 02:09:26 86° SW 02:16:01 10° WNW
Cosmos 1975 3.1 02:06:57 10° NNW 02:10:21 38° W 02:10:36 37° WSW
Cosmos 990 Rocket 3.9 02:05:59 10° NNW 02:11:03 61° WSW 02:15:53 11° S
Cosmos 44 Rocket 4.3 02:08:21 22° W 02:11:09 40° NW 02:16:03 10° NNE
ADEOS II 2.8 02:06:33 10° NNE 02:11:39 50° E 02:16:28 11° S
Cosmos 1763 Rocket 3.5 02:13:17 28° SSW 02:16:08 78° WNW 02:21:29 10° NNE
ALOS 2.4 02:11:42 10° NNE 02:16:16 69° ESE 02:19:31 19° S
Cosmos 1238 Rocket 2.7 02:15:06 28° SSE 02:16:18 51° E 02:19:15 10° NNE
COSMOS 2406 3.9 02:14:30 23° WSW 02:17:39 42° NW 02:23:07 10° NNE
CZ-2D R/B 2.2 02:15:01 10° NNE 02:20:18 77° ESE 02:24:32 16° S
COSMOS 2428 3.9 02:14:53 10° NNW 02:20:23 45° NE 02:25:50 10° SE
SL-16 R/B 3.6 02:15:24 10° SE 02:21:22 48° ENE 02:27:21 10° N
ADEOS Rocket 3.7 02:15:47 10° N 02:23:10 61° WNW 02:28:49 20° SW
Sich 1 4.5 02:21:16 10° N 02:25:09 37° ENE 02:29:00 10° SE
Spot 2 4.3 02:23:41 10° S 02:28:28 72° WSW 02:33:27 10° NNW
Cosmos 1898 Rocket 3.8 02:24:01 10° NNW 02:29:11 70° ENE 02:34:20 10° SSE
Cosmos 1354 Rocket 4.4 02:28:32 10° NW 02:33:29 41° WSW 02:38:18 10° S
Cosmos 1937 Rocket 4.1 02:28:33 10° NNW 02:33:43 58° ENE 02:38:48 10° SE
Cosmos 2360 Rocket 2.6 02:30:45 10° NW 02:35:58 39° WSW 02:41:10 10° S
Cosmos 2333 Rocket 3.3 02:32:34 10° NW 02:37:00 24° WSW 02:39:00 20° SW
SL-19 R/B 4.4 02:31:51 10° NNE 02:37:32 81° ESE 02:43:25 11° SSW
Alouette 2 Rocket 3.2 02:33:43 10° NNW 02:37:52 66° W 02:41:23 10° S
USA 305 3.1 02:38:24 15° NW 02:39:07 17° NNW 02:40:11 10° NE
EP 1 4.1 02:37:30 10° NW 02:40:04 63° SW 02:42:50 10° SSE
USA 281 4.3 02:38:17 19° SW 02:40:33 22° W 02:45:32 10° NW
Meteor 2-10 Rocket 3.7 02:38:18 10° N 02:43:25 74° ENE 02:48:40 10° SSE
Cosmos 540 Rocket 3.8 02:41:18 20° SW 02:44:43 52° WNW 02:49:47 10° NNE
H-2A R/B 3.6 02:41:30 10° NNE 02:45:07 31° E 02:48:39 10° SSE
Cosmos 2221 3.8 02:43:58 18° WSW 02:45:39 23° WNW 02:49:01 10° NNW
Cosmos 2082 Rocket 4.1 02:41:42 10° W 02:45:48 20° NW 02:49:54 10° N
Cosmos 1553 Rocket 4.3 02:41:43 10° S 02:47:50 69° E 02:54:07 10° NNE
Resurs 1-4 Rocket 2.3 02:43:41 10° N 02:48:55 60° WNW 02:53:19 14° SW
USA 276 3.1 02:50:08 13° SE 02:50:08 13° SE 02:50:29 10° SE
Cosmos 468 Rocket 4.0 02:46:38 16° SSW 02:50:57 77° WNW 02:56:17 10° NNE
Cosmos 2322 Rocket 3.0 02:46:25 10° NW 02:51:08 28° WSW 02:55:51 10° SSW
BREEZE-M DEB (TANK) 3.2 02:50:12 14° W 02:52:42 68° S 03:01:15 10° ESE
DNEPR-1 R/B 4.5 02:49:19 10° NW 02:54:31 49° WSW 03:00:47 10° SSE
CZ-2C R/B 4.4 02:52:11 10° NE 02:56:20 27° E 03:00:22 10° SSE
Cosmos 1766 Rocket 3.9 02:52:48 10° NNW 02:56:57 44° W 03:01:02 10° SSW
ACS3 Solar Sail 3.7 02:55:12 10° NNW 02:57:55 13° NW 03:00:40 10° WNW
Cosmos 1833 4.3 02:53:59 15° SW 02:58:41 65° WNW 03:04:20 10° NNE
Cosmos 1271 Rocket 4.5 03:01:02 12° W 03:02:26 15° WNW 03:04:32 10° NNW
H-2A R/B 2.1 02:58:03 10° N 03:03:06 63° WNW 03:08:16 10° SSW
CRYOSAT 2 4.4 02:59:24 10° S 03:04:13 60° W 03:09:04 10° N
Cosmos 2219 Rocket 2.7 03:00:05 10° NW 03:05:13 37° WSW 03:10:20 10° S
Cosmos 2237 Rocket 3.6 02:59:57 10° NNW 03:05:24 44° NE 03:10:48 10° ESE
SL-16 R/B 3.9 03:03:19 10° WNW 03:05:34 12° W 03:06:39 12° WSW
RESURS DK-1 4.2 03:02:52 10° NNW 03:06:33 35° NE 03:10:12 10° ESE
Cosmos 44 4.5 03:01:22 10° NW 03:06:41 52° NE 03:11:53 10° ESE
SL-4 R/B 3.2 03:05:08 13° W 03:07:14 19° SW 03:09:59 10° S
SL-14 R/B 3.7 03:05:25 10° S 03:09:15 63° E 03:13:07 10° NNE
USA 290 3.6 03:10:18 14° WSW 03:12:21 25° WNW 03:15:03 10° N
CZ-4C R/B 3.9 03:08:32 10° WNW 03:12:45 25° NNW 03:17:58 10° NE
ARGOS 3.3 03:08:42 10° NNE 03:14:08 81° ESE 03:19:30 10° SSW
USA 267 3.4 03:08:03 10° ENE 03:14:38 78° NNW 03:21:11 10° WSW
Cosmos 1408 Rocket 3.8 03:10:52 10° N 03:15:10 72° ENE 03:19:25 10° SSE
Cosmos 1745 Rocket 4.2 03:09:40 10° N 03:15:52 75° E 03:21:59 10° SSE
METEOR-M 4.2 03:11:24 10° N 03:16:43 69° WNW 03:22:00 10° SSW
Gbstr 26 Del rocket 4.1 03:20:08 10° W 03:22:44 18° SW 03:25:22 10° S
Cosmos 2322 3.7 03:20:04 10° NW 03:25:43 64° WSW 03:31:20 10° SSE
NOSS 3 (A) 4.1 03:29:13 10° NW 03:31:30 63° SW 03:34:27 10° SSE
ISS -3.1 03:29:25 10° SW 03:32:40 46° SSE 03:35:56 10° ENE
UNK 4.3 03:30:10 10° SSE 03:34:42 63° ENE 03:39:14 10° N
Envisat 4.4 03:32:45 10° N 03:36:40 23° WNW 03:40:34 10° WSW
BREEZE-M DEB (TANK) 2.6 03:32:20 10° WSW 03:38:03 49° SSE 03:40:40 10° E
Meteor 2-4 Rocket 4.3 03:35:24 10° SW 03:40:18 35° WNW 03:45:13 10° N
